Mt. Pocono, PA

3:48 PM EST on November 13, 2019 (GMT -0500)
Pocono Mountains Municipal

Weather History for KMPO - October, 2019

Change the Weather History Date:

Monday, October 21, 2019

  Actual Average Record
Temperature  
Mean Temperature 54 °F 47 °F  
Max Temperature 63 °F 56 °F 77 °F (1963)
Min Temperature 44 °F 38 °F 16 °F (1972)
Degree Days  
Heating Degree Days 12 18  
Month to date heating degree days 295 324  
Since 1 July heating degree days 473 592  
Cooling Degree Days 0 0  
Month to date cooling degree days 5 0  
Year to date cooling degree days 348 313  
Growing Degree Days 4 (Base 50)    
Moisture  
Dew Point 45 °F    
Average Humidity 87    
Maximum Humidity 100    
Minimum Humidity 52    
Precipitation  
Precipitation 0.00 in 0.13 in 2.20 in (1904)
Month to date precipitation 3.64 2.97  
Year to date precipitation 39.86 39.31  
Sea Level Pressure  
Sea Level Pressure 30.07 in    
Wind  
Wind Speed 7 mph ()    
Max Wind Speed 13 mph    
Max Gust Speed 19 mph    
Visibility 7.1 miles    
Events Fog    
T = Trace of Precipitation, MM = Missing Value Source: Averaged Metar Reports

Daily Weather History Graph

Daily Weather History Graph

Search for Another Location

Airport or City:

Astronomy

Oct. 21, 2019 Rise Set
Actual Time 7:19 AM EDT 6:12 PM EDT
Civil Twilight 6:51 AM EDT 6:40 PM EDT
Nautical Twilight 6:19 AM EDT 7:12 PM EDT
Astronomical Twilight 5:47 AM EDT 7:44 PM EDT
Moon No Moon Rise 2:37 PM EDT (10/21)
Length of Visible Light 11h 48m
Length of Day
10h 52m
Waning Gibbous, 48% of the Moon is Illuminated
Oct 21
Waning Gibbous
Oct 27
New
Nov 4
First Quarter
Nov 12
Full
Nov 19
Last Quarter

Hourly Weather History & Observations

Time (EDT) Temp. Windchill Dew Point Humidity Pressure Visibility Wind Dir Wind Speed Gust Speed Precip Events Conditions
12:53 AM 46.0 °F 41.9 °F 46.0 °F 100% 30.03 in 10.0 mi NNE 8.1 mph - N/A   Overcast
1:45 AM 46.0 °F 43.1 °F 46.0 °F 100% 30.01 in 2.0 mi North 5.8 mph - N/A   Overcast
1:53 AM 46.0 °F 43.1 °F 46.0 °F 100% 30.03 in 2.0 mi NNE 5.8 mph - N/A   Overcast
2:00 AM 46.0 °F 41.0 °F 46.0 °F 100% 30.01 in 1.5 mi North 10.4 mph - N/A   Overcast
2:46 AM 45.0 °F 40.1 °F 45.0 °F 100% 30.02 in 0.5 mi North 9.2 mph - N/A Fog Fog
2:53 AM 46.0 °F 41.9 °F 46.0 °F 100% 30.04 in 0.5 mi North 8.1 mph - N/A Fog Fog
3:14 AM 46.0 °F 41.9 °F 46.0 °F 100% 30.01 in 0.2 mi North 8.1 mph - N/A Fog Fog
3:45 AM 46.0 °F 41.0 °F 46.0 °F 100% 30.01 in 0.5 mi North 10.4 mph - N/A Fog Fog
3:53 AM 46.0 °F 41.9 °F 46.0 °F 100% 30.03 in 0.5 mi North 8.1 mph - N/A Fog Fog
4:15 AM 45.0 °F 39.7 °F 45.0 °F 100% 30.01 in 2.0 mi North 10.4 mph - N/A   Overcast
4:23 AM 45.0 °F 40.6 °F 45.0 °F 100% 30.01 in 5.0 mi NNW 8.1 mph - N/A   Overcast
4:53 AM 45.0 °F 39.3 °F 45.0 °F 100% 30.04 in 6.0 mi North 11.5 mph - N/A   Overcast
6:29 AM 45.0 °F 41.2 °F 45.0 °F 100% 30.05 in 10.0 mi NNW 6.9 mph - N/A   Overcast
6:53 AM 45.0 °F 41.8 °F 45.0 °F 100% 30.07 in 10.0 mi North 5.8 mph - N/A   Mostly Cloudy
7:53 AM 44.1 °F - 44.1 °F 100% 30.09 in 10.0 mi Calm Calm - N/A   Mostly Cloudy
8:20 AM 46.0 °F 43.9 °F 45.0 °F 96% 30.07 in 10.0 mi North 4.6 mph - N/A   Scattered Clouds
8:53 AM 48.9 °F - 46.0 °F 90% 30.10 in 10.0 mi NE 3.5 mph - N/A   Clear
9:53 AM 51.1 °F - 45.0 °F 80% 30.10 in 10.0 mi NE 10.4 mph - N/A   Clear
10:53 AM 54.0 °F - 45.0 °F 72% 30.12 in 10.0 mi Variable 4.6 mph - N/A   Clear
11:53 AM 55.9 °F - 45.0 °F 67% 30.11 in 10.0 mi East 8.1 mph - N/A   Clear
12:53 PM 57.0 °F - 46.0 °F 67% 30.09 in 10.0 mi East 6.9 mph - N/A   Clear
1:53 PM 61.0 °F - 46.0 °F 58% 30.07 in 10.0 mi Variable 5.8 mph - N/A   Clear
3:53 PM 62.1 °F - 45.0 °F 53% 30.08 in 10.0 mi SE 6.9 mph - N/A   Clear
4:53 PM 60.1 °F - 46.9 °F 62% 30.09 in 10.0 mi ESE 6.9 mph - N/A   Clear
5:53 PM 55.9 °F - 46.9 °F 72% 30.08 in 10.0 mi ESE 9.2 mph - N/A   Clear
6:53 PM 54.0 °F - 45.0 °F 72% 30.09 in 10.0 mi East 4.6 mph - N/A   Clear
7:53 PM 51.1 °F - 45.0 °F 80% 30.12 in 10.0 mi East 4.6 mph - N/A   Clear
8:53 PM 50.0 °F - 45.0 °F 83% 30.12 in 10.0 mi ESE 6.9 mph - N/A   Clear
9:53 PM 50.0 °F - 45.0 °F 83% 30.11 in 10.0 mi ESE 9.2 mph - N/A   Clear
10:53 PM 48.9 °F - 45.0 °F 86% 30.12 in 10.0 mi ESE 8.1 mph - N/A   Clear
11:53 PM 50.0 °F - 46.0 °F 86% 30.11 in 10.0 mi SE 10.4 mph - N/A   Partly Cloudy